Find Starlink 32005

NORAD ID: 60034 Int'l Des: 2024-111 Owner: SPXS Country: US Constellation: starlink operational
LEOCIRCULAR

現在のビュー

3D地球を読み込み中...

About Starlink 32005

Starlink 32005 (NORAD 60034) is a starlink constellation satellite (v2 mini) launched Jun 8, 2024 by SPXS of US. It operates in LEO, CIRCULAR orbit with a mass of 730.00 kg.

Starlink 32005について

説明を読み込み中...

次回通過

Passes for default location (London). Set your location on the main map for personalized predictions.

高度履歴

Loading altitude history...

軌道要素

1 60034U 24111U 26171.42454051 .00007159 00000-0 25402-3 0 9992
2 60034 53.1612 318.3617 0001063 73.1147 286.9970 15.30146831114666
Epoch: Jun 20, 2026 • Age: 34 hours

現在のステータス

高度 486.4 km
速度 7.62 km/s
衛星直下点 -34.04°S, 64.2°E
打ち上げ日 Jun 8, 2024
運用期間 2 years
タイプ internet

技術仕様

分類 Payload
質量 730.00 kg
乾燥質量 700.00 kg
総質量 730.00 kg
長さ 0.30 m
直径 4.10 m
スパン 29.00 m
形状 Box + pan
製造者 SPXS
バスタイプ Starlink V2M
フェーズステータス In Orbit
所有者/国 SPXS/US

Most Searched